Flag for Bosnia-Herzegovina Weather past 2 weeks in Mostar, Bosnia-Herzegovina

Now
93 °F

Sunny.


Feels Like: 91 °F
Forecast: 65 / 97 °F
Wind: 6 mph from Southwest

Location: Mostar

Current Time: Aug 30, 2015 at 6:50:41 PM

Latest Report: Aug 30, 2015 at 6:00 PM


Visibility: 10 mi

Pressure: 30.04 "Hg

Humidity: 28%

Dew point: 55 °F

Location of MostarLocation

Historic Weather in Mostar — Graph

°F

Mostar temperature yesterday

Maximum temperature yesterday: 99 °F (at 3:00 PM)
Minimum temperature yesterday: 66 °F (at 4:30 AM)
Average temperature yesterday: 78 °F

Past Weeks' High & Low Weather Summary

 TemperatureHumidityPressure
High99 °F (Aug 29, 3:00 PM)100% (Aug 17, 7:00 AM)30.12 "Hg (Aug 17, 7:00 AM)
Low59 °F (Aug 24, 6:00 AM)25% (Aug 30, 3:00 PM)29.68 "Hg (Aug 16, 7:00 PM)
Average76 °F65%29.95 "Hg
* Reported Aug 15 5:00 PM — Aug 30 5:00 PM, Mostar, Weather by CustomWeather, © 2015

Note: Actual official high and low records may vary slightly from our data, if they occured in-between our weather recording intervals... More about our weather records

Advertising

Mostar weather history for previous 24 hours

 ConditionsComfort  
Time TempWeatherWind HumidityBarometerVisibility
5:00 PM
Sun, Aug 30
95 °FSunny.9 mph26%30.04 "Hg10 mi
4:00 PM97 °FPassing clouds.8 mph25%30.04 "HgN/A
3:00 PM97 °FSunny.7 mph25%30.04 "Hg10 mi
2:00 PM97 °FPassing clouds.5 mph27%30.07 "HgN/A
1:00 PM95 °FSunny.3 mph30%30.09 "Hg10 mi
12:00 PM91 °FSunny.2 mph34%30.09 "Hg10 mi
11:00 AM88 °FSunny.2 mph43%30.12 "Hg10 mi
10:00 AM84 °FSunny.3 mph48%30.12 "Hg10 mi
9:00 AM77 °FSunny.2 mph57%30.12 "Hg10 mi
8:00 AM72 °FSunny.2 mph78%30.12 "Hg10 mi
7:00 AM66 °FClear.3 mph88%30.12 "Hg10 mi
6:00 AM64 °FClear.3 mph88%30.09 "Hg10 mi
5:00 AM66 °FPassing clouds.3 mph88%30.09 "HgN/A
4:00 AM68 °FClear.2 mph83%30.09 "Hg10 mi
3:00 AM70 °FPassing clouds.3 mph83%30.09 "HgN/A
2:00 AM70 °FClear.3 mph83%30.09 "Hg10 mi
1:00 AM70 °FClear.3 mph83%30.09 "Hg10 mi
12:00 AM75 °FClear.1 mph69%30.09 "Hg10 mi
11:00 PM
Sat, Aug 29
75 °FPassing clouds.3 mph69%30.09 "HgN/A
10:00 PM77 °FClear.1 mph65%30.07 "Hg10 mi
9:00 PM81 °FClear.2 mph58%30.07 "Hg10 mi
8:00 PM84 °FSunny.2 mph51%30.07 "Hg10 mi
7:00 PM88 °FPassing clouds.9 mph46%30.04 "HgN/A
6:00 PM93 °FPassing clouds.10 mph41%30.04 "HgN/A
Weather by CustomWeather, © 2015

See weather overviewHow to use our weather pages